Milas, Turkey

12:29 PM +03 on April 25, 2017 (GMT +0300)
Bodrum

Weather History for LTFE - August, 2013

Change the Weather History Date:

Wednesday, August 7, 2013

  Actual Average Record
Temperature  
Mean Temperature 83 °F -  
Max Temperature 102 °F - - ()
Min Temperature 64 °F - - ()
Cooling Degree Days 18    
Growing Degree Days 33 (Base 50)    
Moisture  
Dew Point 55 °F    
Average Humidity 45    
Maximum Humidity 83    
Minimum Humidity 12    
Precipitation  
Precipitation 0.00 in - - ()
Sea Level Pressure  
Sea Level Pressure 29.71 in    
Wind  
Wind Speed 5 mph ()    
Max Wind Speed 17 mph    
Max Gust Speed -    
T = Trace of Precipitation, MM = Missing Value Source: Averaged Metar Reports

Daily Weather History Graph

Daily Weather History Graph

Search for Another Location

Airport or City:

Trip Planner

Search our weather history database for the weather conditions in past years. The results will help you decide how hot, cold, wet, or windy it might be!

Date:

Astronomy

Aug. 07, 2013 Rise Set
Actual Time 6:18 AM EEST 8:10 PM EEST
Civil Twilight 5:50 AM EEST 8:38 PM EEST
Nautical Twilight 5:16 AM EEST 9:13 PM EEST
Astronomical Twilight 4:39 AM EEST 9:49 PM EEST
Moon 6:46 AM EEST (8/7) 8:10 PM EEST (8/7)
Length of Visible Light 14h 48m
Length of Day
13h 51m
New Moon, 0% of the Moon is Illuminated
Aug 7
New Moon
Aug 14
First Quarter
Aug 21
Full
Aug 28
Last Quarter
Sep 5
New

Hourly Weather History & Observations

Time (EEST) Temp. Heat Index Dew Point Humidity Pressure Visibility Wind Dir Wind Speed Gust Speed Precip Events Conditions
12:20 AM 73.4 °F - 64.4 °F 73% 29.71 in - NNE 4.6 mph - N/A   Clear
12:50 AM 71.6 °F - 62.6 °F 73% 29.71 in - Variable 2.3 mph - N/A   Clear
1:20 AM 71.6 °F - 62.6 °F 73% 29.71 in - Variable 2.3 mph - N/A   Clear
1:50 AM 71.6 °F - 62.6 °F 73% 29.71 in - Variable 2.3 mph - N/A   Clear
2:20 AM 69.8 °F - 60.8 °F 73% 29.68 in - SSE 3.5 mph - N/A   Clear
2:50 AM 68.0 °F - 60.8 °F 78% 29.68 in - Variable 1.2 mph - N/A   Clear
3:20 AM 68.0 °F - 60.8 °F 78% 29.68 in - Calm Calm - N/A   Clear
3:50 AM 69.8 °F - 60.8 °F 73% 29.68 in - Calm Calm - N/A   Clear
4:20 AM 68.0 °F - 60.8 °F 78% 29.68 in - Variable 2.3 mph - N/A   Clear
4:50 AM 68.0 °F - 59.0 °F 73% 29.68 in - Calm Calm - N/A   Clear
5:20 AM 66.2 °F - 59.0 °F 78% 29.71 in - Variable 2.3 mph - N/A   Clear
5:50 AM 66.2 °F - 59.0 °F 78% 29.71 in - SSE 3.5 mph - N/A   Clear
6:20 AM 64.4 °F - 59.0 °F 83% 29.71 in - Variable 2.3 mph - N/A   Clear
6:50 AM 64.4 °F - 59.0 °F 83% 29.71 in - Variable 1.2 mph - N/A   Clear
7:20 AM 69.8 °F - 60.8 °F 73% 29.71 in - Variable 1.2 mph - N/A   Clear
7:50 AM 73.4 °F - 60.8 °F 65% 29.71 in - Variable 1.2 mph - N/A   Clear
8:20 AM 80.6 °F 81.8 °F 62.6 °F 54% 29.74 in - Variable 2.3 mph - N/A   Clear
8:50 AM 87.8 °F - 51.8 °F 29% 29.71 in - North 4.6 mph - N/A   Clear
9:20 AM 89.6 °F 87.3 °F 53.6 °F 29% 29.71 in - Variable 3.5 mph - N/A   Clear
9:50 AM 91.4 °F - 48.2 °F 23% 29.71 in - NE 8.1 mph - N/A   Clear
10:20 AM 93.2 °F - 51.8 °F 24% 29.71 in - Variable 5.8 mph - N/A   Clear
10:50 AM 93.2 °F - 51.8 °F 24% 29.71 in - WNW 5.8 mph - N/A   Clear
11:20 AM 95.0 °F - 51.8 °F 23% 29.74 in - NW 5.8 mph - N/A   Clear
11:50 AM 96.8 °F - 41.0 °F 15% 29.71 in - NNE 9.2 mph - N/A   Clear
12:20 PM 96.8 °F - 41.0 °F 15% 29.74 in - Variable 6.9 mph - N/A   Clear
12:50 PM 96.8 °F - 44.6 °F 17% 29.71 in - WNW 8.1 mph - N/A   Clear
1:20 PM 98.6 °F - 42.8 °F 15% 29.71 in - West 12.7 mph - N/A   Clear
1:50 PM 98.6 °F - 46.4 °F 17% 29.71 in - West 13.8 mph - N/A   Clear
2:20 PM 98.6 °F - 46.4 °F 17% 29.71 in - West 15.0 mph - N/A   Clear
2:50 PM 100.4 °F - 46.4 °F 16% 29.71 in - West 17.3 mph - N/A   Clear
3:20 PM 100.4 °F - 48.2 °F 17% 29.68 in - West 13.8 mph - N/A   Clear
3:50 PM 102.2 °F - 44.6 °F 14% 29.68 in - West 9.2 mph - N/A   Clear
4:20 PM 102.2 °F - 41.0 °F 12% 29.68 in - Variable 5.8 mph - N/A   Clear
4:50 PM 100.4 °F - 44.6 °F 15% 29.68 in - NNW 10.4 mph - N/A   Clear
5:20 PM 100.4 °F - 46.4 °F 16% 29.68 in - North 9.2 mph - N/A   Clear
5:50 PM 98.6 °F - 48.2 °F 18% 29.68 in - NNW 12.7 mph - N/A   Clear
6:20 PM 98.6 °F - 48.2 °F 18% 29.68 in - North 10.4 mph - N/A   Clear
6:50 PM 93.2 °F 91.9 °F 57.2 °F 30% 29.68 in - ESE 9.2 mph - N/A   Clear
7:20 PM 89.6 °F 89.5 °F 60.8 °F 38% 29.71 in - SSW 12.7 mph - N/A   Clear
7:50 PM 86.0 °F 86.6 °F 62.6 °F 45% 29.71 in - SSW 13.8 mph - N/A   Clear
8:20 PM 84.2 °F 85.6 °F 64.4 °F 51% 29.71 in - SSW 16.1 mph - N/A   Clear
8:50 PM 82.4 °F 83.9 °F 64.4 °F 54% 29.74 in - SSW 16.1 mph - N/A   Clear
9:20 PM 82.4 °F 83.4 °F 62.6 °F 51% 29.74 in - SSW 11.5 mph - N/A   Clear
9:50 PM 82.4 °F 83.4 °F 62.6 °F 51% 29.77 in - SSE 5.8 mph - N/A   Clear
10:20 PM 80.6 °F 81.8 °F 62.6 °F 54% 29.77 in - SSE 6.9 mph - N/A   Clear
10:50 PM 80.6 °F 81.8 °F 62.6 °F 54% 29.77 in - South 4.6 mph - N/A   Clear
11:20 PM 78.8 °F - 60.8 °F 54% 29.77 in - SE 4.6 mph - N/A   Clear
11:50 PM 75.2 °F - 62.6 °F 65% 29.77 in - Variable 2.3 mph - N/A   Clear